When you browse on this site, cookies collect data to enhance your experience and personalize the content and advertising you see.
Visit our Privacy Policy to learn more. By continuing to use the site, you agree to this use of cookies and data.
  • In Czech Republic
  • List of Countries
  • For 7 days
  • Water Temperature
  • Weather Map
  • Weather Widgets
  • user-avatar
    Login

    Hourly Weather Sydney

    Today, 9 April, Thursday

    Time Temperature Precipitation Wind Pressure Humidity
    00:00 +17°C° 0.2 mm 3 mps 767 mmHg 86%
    01:00 +16°C° 0.2 mm 3 mps 767 mmHg 87%
    02:00 +16°C° 0 mm 3 mps 767 mmHg 88%
    03:00 +16°C° 0 mm 3 mps 767 mmHg 88%
    04:00 +15°C° 0 mm 4 mps 767 mmHg 88%
    05:00 +15°C° 0 mm 4 mps 768 mmHg 88%
    06:00 +15°C° 0 mm 4 mps 768 mmHg 87%
    07:00 +15°C° 0 mm 4 mps 768 mmHg 87%
    08:00 +18°C° 0.1 mm 4 mps 768 mmHg 81%
    09:00 +20°C° 0.1 mm 4 mps 769 mmHg 75%
    10:00 +21°C° 0 mm 3 mps 769 mmHg 71%
    11:00 +22°C° 0 mm 3 mps 769 mmHg 67%
    12:00 +24°C° 0 mm 3 mps 768 mmHg 63%
    13:00 +23°C° 0 mm 4 mps 767 mmHg 59%
    14:00 +24°C° 0 mm 3 mps 767 mmHg 60%
    15:00 +24°C° 0 mm 2 mps 767 mmHg 61%
    16:00 +24°C° 0 mm 2 mps 766 mmHg 62%
    17:00 +23°C° 0 mm 2 mps 767 mmHg 68%
    18:00 +21°C° 0 mm 2 mps 767 mmHg 75%
    19:00 +20°C° 0 mm 3 mps 768 mmHg 81%
    20:00 +19°C° 0.1 mm 3 mps 768 mmHg 82%
    21:00 +19°C° 0.1 mm 3 mps 767 mmHg 83%
    22:00 +19°C° 0.1 mm 3 mps 767 mmHg 84%
    23:00 +18°C° 0.4 mm 3 mps 767 mmHg 85%

    Tomorrow, 10 April, Friday

    Time Temperature Precipitation Wind Pressure Humidity
    00:00 +18°C° 0.4 mm 3 mps 766 mmHg 86%
    01:00 +18°C° 0.4 mm 3 mps 766 mmHg 87%
    02:00 +18°C° 0.1 mm 3 mps 766 mmHg 87%
    03:00 +18°C° 0.1 mm 3 mps 765 mmHg 88%
    04:00 +18°C° 0.1 mm 3 mps 765 mmHg 88%
    05:00 +18°C° 0.3 mm 3 mps 765 mmHg 89%
    06:00 +18°C° 0.3 mm 3 mps 764 mmHg 90%
    07:00 +18°C° 0.3 mm 3 mps 764 mmHg 91%
    08:00 +18°C° 1 mm 4 mps 764 mmHg 91%
    09:00 +18°C° 1 mm 4 mps 764 mmHg 90%
    10:00 +17°C° 1 mm 5 mps 764 mmHg 90%
    11:00 +18°C° 1 mm 4 mps 763 mmHg 90%
    12:00 +18°C° 1 mm 4 mps 762 mmHg 91%
    13:00 +18°C° 1 mm 4 mps 761 mmHg 91%
    14:00 +19°C° 0.5 mm 4 mps 760 mmHg 85%
    15:00 +21°C° 0.5 mm 5 mps 759 mmHg 80%
    16:00 +22°C° 0.5 mm 5 mps 758 mmHg 75%
    17:00 +21°C° 0 mm 5 mps 758 mmHg 77%
    18:00 +20°C° 0 mm 5 mps 758 mmHg 79%
    19:00 +19°C° 0 mm 5 mps 758 mmHg 81%
    20:00 +17°C° 0 mm 5 mps 758 mmHg 80%
    21:00 +16°C° 0 mm 5 mps 758 mmHg 79%
    22:00 +16°C° 0 mm 5 mps 758 mmHg 77%
    23:00 +15°C° 0 mm 4 mps 757 mmHg 77%

    Day after tomorrow, 11 April, Saturday

    Time Temperature Precipitation Wind Pressure Humidity
    00:00 +15°C° 0 mm 4 mps 757 mmHg 76%
    01:00 +15°C° 0 mm 4 mps 756 mmHg 76%
    02:00 +14°C° 0 mm 4 mps 756 mmHg 76%
    03:00 +14°C° 0 mm 4 mps 755 mmHg 77%
    04:00 +14°C° 0 mm 4 mps 755 mmHg 78%
    05:00 +14°C° 0 mm 4 mps 754 mmHg 77%
    06:00 +14°C° 0 mm 4 mps 754 mmHg 76%
    07:00 +14°C° 0 mm 4 mps 754 mmHg 75%
    08:00 +17°C° 0 mm 5 mps 754 mmHg 62%
    09:00 +21°C° 0 mm 5 mps 753 mmHg 48%
    10:00 +24°C° 0 mm 6 mps 753 mmHg 35%
    11:00 +26°C° 0 mm 7 mps 752 mmHg 35%
    12:00 +26°C° 0 mm 7 mps 751 mmHg 34%
    13:00 +27°C° 0 mm 8 mps 750 mmHg 34%
    14:00 +24°C° 0 mm 9 mps 751 mmHg 37%
    15:00 +23°C° 0 mm 10 mps 751 mmHg 39%
    16:00 +21°C° 0 mm 11 mps 751 mmHg 42%
    17:00 +18°C° 0 mm 11 mps 752 mmHg 43%
    18:00 +17°C° 0 mm 11 mps 753 mmHg 44%
    19:00 +14°C° 0 mm 10 mps 754 mmHg 45%
    20:00 +14°C° 0 mm 10 mps 755 mmHg 46%
    21:00 +13°C° 0 mm 10 mps 756 mmHg 47%
    22:00 +12°C° 0 mm 9 mps 757 mmHg 47%
    23:00 +12°C° 0 mm 9 mps 757 mmHg 49%

    12 April, Sunday

    Time Temperature Precipitation Wind Pressure Humidity
    00:00 +11°C° 0 mm 8 mps 758 mmHg 51%
    01:00 +11°C° 0 mm 8 mps 758 mmHg 53%
    02:00 +10°C° 0 mm 7 mps 758 mmHg 55%
    03:00 +10°C° 0 mm 7 mps 759 mmHg 56%
    04:00 +10°C° 0 mm 7 mps 759 mmHg 58%
    05:00 +10°C° 0 mm 6 mps 759 mmHg 58%
    06:00 +10°C° 0 mm 6 mps 760 mmHg 59%
    07:00 +10°C° 0 mm 6 mps 760 mmHg 59%
    08:00 +13°C° 0 mm 5 mps 761 mmHg 54%
    09:00 +15°C° 0 mm 5 mps 761 mmHg 48%
    10:00 +17°C° 0 mm 5 mps 761 mmHg 43%
    11:00 +19°C° 0 mm 4 mps 761 mmHg 40%
    12:00 +20°C° 0 mm 4 mps 761 mmHg 37%
    13:00 +22°C° 0 mm 4 mps 761 mmHg 35%
    14:00 +21°C° 0 mm 4 mps 760 mmHg 37%
    15:00 +21°C° 0 mm 4 mps 760 mmHg 40%
    16:00 +20°C° 0 mm 4 mps 760 mmHg 43%
    17:00 +19°C° 0 mm 4 mps 761 mmHg 49%
    18:00 +17°C° 0 mm 3 mps 762 mmHg 56%
    19:00 +16°C° 0 mm 3 mps 762 mmHg 62%
    20:00 +14°C° 0 mm 3 mps 763 mmHg 65%
    21:00 +15°C° 0 mm 2 mps 763 mmHg 67%
    22:00 +14°C° 0 mm 2 mps 764 mmHg 70%
    23:00 +14°C° 0 mm 2 mps 764 mmHg 71%

    13 April, Monday

    Time Temperature Precipitation Wind Pressure Humidity
    00:00 +13°C° 0 mm 2 mps 764 mmHg 73%
    01:00 +13°C° 0 mm 2 mps 763 mmHg 75%
    02:00 +13°C° 0 mm 2 mps 763 mmHg 75%
    03:00 +12°C° 0 mm 2 mps 763 mmHg 76%
    04:00 +11°C° 0 mm 3 mps 763 mmHg 77%
    05:00 +12°C° 0 mm 2 mps 764 mmHg 76%
    06:00 +12°C° 0 mm 2 mps 764 mmHg 76%
    07:00 +12°C° 0 mm 2 mps 765 mmHg 75%
    08:00 +15°C° 0 mm 2 mps 765 mmHg 67%
    09:00 +17°C° 0 mm 2 mps 765 mmHg 59%
    10:00 +21°C° 0 mm 1 mps 765 mmHg 51%
    11:00 +22°C° 0 mm 1 mps 764 mmHg 47%
    12:00 +23°C° 0 mm 2 mps 764 mmHg 44%
    13:00 +24°C° 0 mm 2 mps 763 mmHg 40%
    14:00 +23°C° 0 mm 2 mps 763 mmHg 45%
    15:00 +22°C° 0 mm 3 mps 763 mmHg 50%
    16:00 +21°C° 0 mm 4 mps 763 mmHg 54%
    17:00 +20°C° 0 mm 4 mps 763 mmHg 61%
    18:00 +18°C° 0 mm 4 mps 764 mmHg 67%
    19:00 +17°C° 0 mm 3 mps 764 mmHg 74%
    20:00 +17°C° 0 mm 3 mps 765 mmHg 76%
    21:00 +16°C° 0 mm 3 mps 765 mmHg 79%
    22:00 +16°C° 0 mm 2 mps 765 mmHg 81%
    23:00 +15°C° 0 mm 2 mps 765 mmHg 83%

    14 April, Tuesday

    Time Temperature Precipitation Wind Pressure Humidity
    00:00 +15°C° 0 mm 2 mps 765 mmHg 84%
    01:00 +14°C° 0 mm 2 mps 765 mmHg 86%
    02:00 +14°C° 0 mm 2 mps 765 mmHg 86%
    03:00 +14°C° 0 mm 2 mps 765 mmHg 87%
    04:00 +14°C° 0 mm 1 mps 765 mmHg 88%
    05:00 +14°C° 0 mm 2 mps 766 mmHg 87%
    06:00 +14°C° 0 mm 2 mps 766 mmHg 86%
    07:00 +14°C° 0 mm 2 mps 767 mmHg 85%
    08:00 +16°C° 0 mm 2 mps 766 mmHg 75%
    09:00 +18°C° 0 mm 2 mps 766 mmHg 65%
    10:00 +22°C° 0 mm 1 mps 766 mmHg 54%
    11:00 +23°C° 0 mm 2 mps 766 mmHg 49%
    12:00 +24°C° 0 mm 2 mps 766 mmHg 44%
    13:00 +26°C° 0 mm 2 mps 765 mmHg 39%
    14:00 +25°C° 0 mm 3 mps 765 mmHg 41%
    15:00 +25°C° 0 mm 3 mps 765 mmHg 43%
    16:00 +25°C° 0 mm 4 mps 765 mmHg 45%
    17:00 +22°C° 0 mm 4 mps 765 mmHg 55%
    18:00 +20°C° 0 mm 4 mps 766 mmHg 64%
    19:00 +18°C° 0 mm 4 mps 766 mmHg 74%
    20:00 +18°C° 0 mm 3 mps 767 mmHg 78%
    21:00 +18°C° 0 mm 3 mps 767 mmHg 81%
    22:00 +17°C° 0 mm 2 mps 768 mmHg 84%
    23:00 +17°C° 0 mm 2 mps 768 mmHg 85%
    Show more